�N����,����,�~����,�C��,���x,�C��,����,���ϕ���,�ő�u�ԕ���,�ő厞����,���˗�,�I�_���x,�n�����x,�ő啗���N��,DTYPE
"22/10/18","00:10",0.0,16.8,97.5,1006.4,307.7,1.3,2.6,327.6,0.00,16.4,20.1,"00:00:08",1
"22/10/18","00:20",0.0,16.7,97.5,1006.2,284.1,1.0,1.3,296.2,0.00,16.3,20.2,"00:18:32",1
"22/10/18","00:30",0.0,16.9,97.6,1006.4,287.5,1.3,2.1,307.9,0.00,16.6,20.1,"00:20:02",1
"22/10/18","00:40",0.0,17.0,97.5,1006.2,301.1,1.6,2.9,327.3,0.00,16.6,20.1,"00:35:44",1
"22/10/18","00:50",0.0,17.1,97.6,1006.0,320.0,0.6,1.1,318.6,0.00,16.8,20.1,"00:47:12",1
"22/10/18","01:00",0.0,17.1,97.5,1006.2,314.5,1.0,2.0,308.5,0.00,16.7,19.9,"00:59:36",1
"22/10/18","01:10",0.0,17.1,97.6,1006.0,307.7,1.6,2.2,329.3,0.00,16.8,20.0,"01:07:28",1
"22/10/18","01:20",0.0,17.1,97.6,1006.2,282.3,1.3,2.0,312.7,0.00,16.8,20.1,"01:14:00",1
"22/10/18","01:30",0.0,17.2,97.6,1006.0,290.0,1.5,2.1,316.1,0.00,16.9,20.1,"01:27:36",1
"22/10/18","01:40",0.0,17.1,97.6,1006.0,320.7,1.0,2.1,325.4,0.00,16.8,19.9,"01:31:36",1
"22/10/18","01:50",0.0,17.0,97.6,1005.7,311.5,0.6,1.1,297.7,0.00,16.7,20.0,"01:42:56",1
"22/10/18","02:00",0.0,16.9,97.6,1006.0,308.5,1.2,1.7,316.1,0.00,16.6,20.0,"01:51:12",1
"22/10/18","02:10",0.0,16.8,97.7,1005.5,320.3,0.6,1.4,309.5,0.00,16.5,19.8,"02:08:00",1
"22/10/18","02:20",0.0,16.6,97.7,1005.2,282.7,0.3,0.8,292.7,0.00,16.3,19.7,"02:11:12",1
"22/10/18","02:30",0.0,16.5,97.8,1005.5,275.1,0.7,1.1,266.0,0.00,16.2,19.8,"02:21:36",1
"22/10/18","02:40",0.0,16.3,97.9,1005.7,312.8,1.2,1.8,335.6,0.00,16.0,20.0,"02:38:40",1
"22/10/18","02:50",0.0,16.1,97.9,1005.5,296.7,1.1,1.7,269.6,0.00,15.8,19.9,"02:49:52",1
"22/10/18","03:00",0.0,16.2,98.0,1006.0,279.2,1.2,1.9,257.4,0.00,15.9,19.9,"02:54:48",1
"22/10/18","03:10",0.0,16.5,97.5,1005.5,320.0,1.5,1.9,317.8,0.00,16.1,19.8,"03:00:40",1
"22/10/18","03:20",0.0,16.4,97.9,1005.7,338.3,1.3,2.4,349.0,0.00,16.1,19.6,"03:11:44",1
"22/10/18","03:30",0.0,16.4,97.9,1005.7,308.8,1.5,2.1,312.7,0.00,16.1,20.0,"03:22:08",1
"22/10/18","03:40",0.0,16.6,98.0,1005.7,319.3,2.3,4.1,336.4,0.00,16.3,19.8,"03:35:36",1
"22/10/18","03:50",0.0,16.8,97.4,1005.7,313.0,2.5,3.7,318.4,0.00,16.4,19.8,"03:45:44",1
"22/10/18","04:00",0.0,16.7,97.8,1005.5,319.1,1.6,2.9,325.1,0.00,16.4,19.9,"03:52:40",1
"22/10/18","04:10",0.0,16.4,97.8,1005.5,300.0,1.6,2.8,282.9,0.00,16.1,19.8,"04:08:32",1
"22/10/18","04:20",0.0,16.3,97.8,1006.0,313.8,2.1,3.4,331.0,0.00,16.0,19.8,"04:12:32",1
"22/10/18","04:30",0.0,16.2,97.6,1006.0,320.2,1.7,2.9,334.7,0.00,15.9,19.8,"04:20:32",1
"22/10/18","04:40",0.0,15.9,97.6,1006.2,332.6,1.1,2.1,331.4,0.00,15.6,19.8,"04:30:02",1
"22/10/18","04:50",0.0,15.8,97.6,1006.2,327.9,1.1,2.6,339.4,0.00,15.5,19.6,"04:40:08",1
"22/10/18","05:00",0.0,15.4,97.6,1006.2,296.4,0.7,1.3,310.3,0.00,15.1,19.9,"04:50:32",1
"22/10/18","05:10",0.0,15.3,97.7,1006.0,359.5,0.3,1.3,332.2,0.00,15.0,19.7,"05:03:36",1
"22/10/18","05:20",0.0,15.0,97.8,1006.2,326.0,0.8,2.2,317.8,0.00,14.7,19.7,"05:11:36",1
"22/10/18","05:30",0.0,14.7,97.9,1006.4,289.8,0.6,1.8,309.6,0.00,14.4,19.8,"05:29:44",1
"22/10/18","05:40",0.0,14.5,97.9,1006.2,301.4,0.8,1.9,334.4,0.00,14.2,19.7,"05:30:08",1
"22/10/18","05:50",0.0,14.5,98.0,1006.7,307.7,1.1,1.7,312.6,0.00,14.2,19.7,"05:41:58",1
"22/10/18","06:00",0.0,14.8,97.4,1006.2,302.3,1.0,1.4,317.8,0.00,14.4,19.8,"05:53:12",1
"22/10/18","06:10",0.0,14.5,97.9,1006.4,321.6,1.1,1.8,327.9,0.00,14.2,19.5,"06:06:04",1
"22/10/18","06:20",0.0,14.6,98.0,1006.4,314.5,1.1,1.9,326.1,0.00,14.3,19.4,"06:11:54",1
"22/10/18","06:30",0.0,14.7,97.5,1006.9,319.5,1.1,2.0,330.5,0.00,14.3,19.5,"06:27:10",1
"22/10/18","06:40",0.0,14.4,97.9,1006.7,309.5,0.6,1.6,339.8,0.00,14.1,19.4,"06:30:10",1
"22/10/18","06:50",0.0,14.4,98.1,1006.9,311.9,1.3,2.2,335.3,0.00,14.1,19.2,"06:46:24",1
"22/10/18","07:00",0.0,14.7,97.6,1006.9,313.5,1.2,3.1,325.4,0.00,14.4,19.5,"06:59:20",1
"22/10/18","07:10",0.0,14.7,97.9,1006.9,312.8,1.2,2.6,340.4,0.00,14.4,19.4,"07:01:00",1
"22/10/18","07:20",0.0,14.9,97.9,1006.7,327.1,1.3,3.3,345.5,0.00,14.6,19.5,"07:19:28",1
"22/10/18","07:30",0.0,15.1,97.7,1006.9,311.6,1.5,3.1,323.3,0.00,14.8,19.5,"07:24:16",1
"22/10/18","07:40",0.0,15.3,97.4,1007.1,317.9,1.8,3.1,342.1,0.02,14.9,19.1,"07:38:32",1
"22/10/18","07:50",0.0,15.7,96.8,1007.4,319.7,2.3,4.4,341.6,0.04,15.2,19.4,"07:42:40",1
"22/10/18","08:00",0.0,15.9,96.0,1007.4,315.0,1.8,2.8,319.4,0.06,15.3,19.3,"07:51:28",1
"22/10/18","08:10",0.0,16.5,95.6,1007.1,322.8,1.6,2.8,262.0,0.08,15.8,19.3,"08:05:44",1
"22/10/18","08:20",0.0,17.0,94.1,1007.4,315.4,1.5,2.5,337.4,0.09,16.1,19.3,"08:12:32",1
"22/10/18","08:30",0.0,17.6,92.7,1007.8,334.8,1.5,2.2,276.7,0.11,16.4,19.0,"08:20:24",1
"22/10/18","08:40",0.0,18.2,89.9,1007.8,317.9,1.6,3.3,9.4,0.14,16.6,19.2,"08:30:40",1
"22/10/18","08:50",0.0,18.4,85.1,1008.3,334.8,1.6,2.5,340.7,0.16,15.9,19.2,"08:46:08",1
"22/10/18","09:00",0.0,18.6,80.2,1008.6,345.2,2.3,4.2,352.9,0.18,15.2,19.1,"08:54:56",1
"22/10/18","09:10",0.0,18.6,77.9,1008.3,347.7,2.5,5.8,356.4,0.21,14.7,19.2,"09:07:28",1
"22/10/18","09:20",0.0,18.9,76.9,1008.1,339.5,2.0,3.9,339.4,0.22,14.8,19.3,"09:11:52",1
"22/10/18","09:30",0.0,19.2,75.1,1008.3,343.0,2.1,3.7,24.5,0.23,14.7,19.2,"09:27:12",1
"22/10/18","09:40",0.0,19.4,73.7,1007.8,347.1,2.1,3.7,28.5,0.23,14.6,19.2,"09:34:00",1
"22/10/18","09:50",0.0,19.3,73.6,1007.6,345.2,2.1,4.2,339.5,0.20,14.5,19.2,"09:43:36",1
"22/10/18","10:00",0.0,19.9,72.6,1007.6,347.8,2.1,5.0,327.8,0.32,14.9,19.4,"09:55:36",1
"22/10/18","10:10",0.0,20.2,71.5,1007.8,345.5,2.7,5.6,348.5,0.36,14.9,19.4,"10:06:24",1
"22/10/18","10:20",0.0,19.7,69.9,1007.8,343.1,2.8,6.2,324.0,0.28,14.1,19.2,"10:10:40",1
"22/10/18","10:30",0.0,19.1,70.4,1007.8,338.6,2.2,5.6,315.1,0.16,13.6,19.3,"10:21:28",1
"22/10/18","10:40",0.0,18.8,71.4,1008.3,341.8,2.7,5.7,345.8,0.19,13.6,19.2,"10:30:08",1
"22/10/18","10:50",0.0,19.3,69.1,1008.3,352.0,3.2,6.3,343.7,0.33,13.5,19.5,"10:40:16",1
"22/10/18","11:00",0.0,19.3,69.2,1008.1,338.6,3.1,5.4,346.2,0.21,13.6,19.3,"10:53:20",1
"22/10/18","11:10",0.0,19.5,69.1,1008.1,350.0,3.0,6.0,349.7,0.32,13.7,19.4,"11:01:36",1
"22/10/18","11:20",0.0,20.5,66.6,1008.1,338.1,2.6,5.4,323.4,0.50,14.1,19.4,"11:12:48",1
"22/10/18","11:30",0.0,19.6,65.7,1008.1,340.4,3.6,7.1,351.5,0.35,13.1,19.6,"11:28:24",1
"22/10/18","11:40",0.0,19.0,67.2,1008.3,340.2,3.1,5.7,313.5,0.20,12.8,19.6,"11:30:08",1
"22/10/18","11:50",0.0,19.2,68.4,1008.1,337.9,2.5,4.9,354.5,0.25,13.3,19.4,"11:40:08",1
"22/10/18","12:00",0.0,19.5,67.8,1007.6,341.4,2.3,5.7,327.8,0.30,13.4,19.6,"11:58:32",1
"22/10/18","12:10",0.0,20.2,66.3,1008.1,326.2,3.1,6.6,332.6,0.54,13.8,19.6,"12:05:04",1
"22/10/18","12:20",0.0,20.0,66.4,1008.1,313.0,2.3,5.2,346.0,0.34,13.6,19.8,"12:12:40",1
"22/10/18","12:30",0.0,20.7,64.2,1008.3,324.5,2.3,4.5,353.3,0.49,13.7,19.8,"12:21:20",1
"22/10/18","12:40",0.0,21.0,63.2,1008.1,345.9,1.8,5.7,338.1,0.44,13.8,19.5,"12:31:20",1
"22/10/18","12:50",0.0,20.6,65.4,1007.8,321.1,2.3,5.8,351.5,0.38,13.9,19.7,"12:48:40",1
"22/10/18","13:00",0.0,20.6,65.3,1008.1,345.2,3.5,6.3,345.8,0.57,13.9,19.8,"12:59:20",1
"22/10/18","13:10",0.0,19.8,67.1,1008.1,331.2,3.7,9.3,347.1,0.54,13.6,20.0,"13:00:02",1
"22/10/18","13:20",0.0,19.8,68.0,1008.1,317.2,3.1,6.5,350.6,0.57,13.8,19.9,"13:14:56",1
"22/10/18","13:30",0.0,19.3,69.2,1008.3,334.9,2.8,4.9,321.4,0.36,13.6,20.1,"13:24:24",1
"22/10/18","13:40",0.0,18.5,70.9,1008.8,331.4,2.6,4.9,310.1,0.13,13.2,20.2,"13:39:52",1
"22/10/18","13:50",0.0,17.9,72.5,1008.6,329.9,2.8,5.2,343.3,0.14,12.9,20.1,"13:46:48",1
"22/10/18","14:00",0.0,17.8,73.7,1008.3,337.5,2.6,6.2,345.8,0.20,13.1,20.1,"13:56:08",1
"22/10/18","14:10",0.0,18.4,72.7,1008.8,331.0,2.7,6.8,346.8,0.35,13.5,20.1,"14:08:08",1
"22/10/18","14:20",0.0,18.1,71.3,1009.3,323.9,2.8,4.8,324.0,0.19,12.9,20.2,"14:18:32",1
"22/10/18","14:30",0.0,17.9,72.4,1009.3,332.1,3.1,6.6,345.2,0.19,12.9,20.2,"14:21:28",1
"22/10/18","14:40",0.0,18.8,70.8,1009.3,328.3,2.7,5.4,317.4,0.45,13.4,20.2,"14:34:56",1
"22/10/18","14:50",0.0,19.1,69.2,1009.3,314.7,2.5,5.4,313.3,0.41,13.4,20.3,"14:42:08",1
"22/10/18","15:00",0.0,18.9,68.0,1009.3,314.7,2.6,5.0,347.9,0.34,12.9,20.2,"14:55:04",1
"22/10/18","15:10",0.0,18.8,68.4,1009.3,309.6,2.2,5.0,327.0,0.30,12.9,20.4,"15:03:12",1
"22/10/18","15:20",0.0,18.7,68.8,1009.3,295.9,2.1,5.2,302.1,0.27,12.9,20.3,"15:11:28",1
"22/10/18","15:30",0.0,18.2,68.3,1009.5,324.7,2.8,5.7,338.4,0.17,12.3,20.4,"15:27:36",1
"22/10/18","15:40",0.0,18.1,69.5,1009.3,321.8,2.3,4.7,313.8,0.18,12.5,20.3,"15:36:08",1
"22/10/18","15:50",0.0,17.6,70.3,1009.5,322.5,2.8,5.8,334.9,0.09,12.2,20.4,"15:49:04",1
"22/10/18","16:00",0.0,17.2,71.4,1009.7,312.8,3.1,5.7,329.2,0.08,12.0,20.3,"15:55:12",1
"22/10/18","16:10",0.0,17.3,71.4,1009.5,314.1,2.3,5.2,345.1,0.09,12.1,20.4,"16:04:00",1
"22/10/18","16:20",0.0,17.2,71.2,1010.0,322.3,2.6,5.8,335.3,0.09,12.0,20.5,"16:11:04",1
"22/10/18","16:30",0.0,17.2,71.5,1010.2,326.9,2.1,4.5,325.4,0.08,12.0,20.3,"16:23:44",1
"22/10/18","16:40",0.0,17.0,71.9,1010.4,311.9,2.0,4.3,317.5,0.05,11.9,20.4,"16:39:20",1
"22/10/18","16:50",0.0,16.8,72.2,1010.0,323.3,2.5,3.9,315.0,0.03,11.8,20.3,"16:42:48",1
"22/10/18","17:00",0.0,16.7,72.9,1010.4,328.8,2.2,4.0,342.1,0.03,11.9,20.3,"16:59:44",1
"22/10/18","17:10",0.0,16.6,73.3,1010.4,316.8,2.2,5.1,323.6,0.02,11.8,20.4,"17:08:48",1
"22/10/18","17:20",0.0,16.8,72.7,1010.7,326.8,2.1,4.1,249.0,0.02,11.9,20.3,"17:10:24",1
"22/10/18","17:30",0.0,16.6,72.6,1010.4,305.2,1.1,3.6,332.0,0.00,11.7,20.3,"17:23:28",1
"22/10/18","17:40",0.0,16.1,73.3,1010.7,313.7,1.7,3.1,333.0,0.00,11.4,20.3,"17:34:40",1
"22/10/18","17:50",0.0,15.8,74.1,1010.4,306.4,1.6,2.7,304.8,0.00,11.2,20.1,"17:40:08",1
"22/10/18","18:00",0.0,15.6,74.8,1010.4,316.1,1.7,3.2,349.2,0.00,11.2,20.1,"17:59:44",1
"22/10/18","18:10",0.0,15.4,75.8,1010.9,332.8,1.8,3.4,296.3,0.00,11.2,20.0,"18:08:16",1
"22/10/18","18:20",0.0,15.2,76.6,1011.2,336.9,1.7,3.1,337.2,0.00,11.2,20.1,"18:14:00",1
"22/10/18","18:30",0.0,15.2,77.2,1011.2,332.2,2.1,3.2,325.9,0.00,11.3,20.0,"18:29:44",1
"22/10/18","18:40",0.0,15.2,77.2,1011.2,321.1,2.1,5.1,340.1,0.00,11.3,20.0,"18:33:54",1
"22/10/18","18:50",0.0,15.2,77.3,1011.4,325.8,2.1,3.6,312.5,0.00,11.3,20.2,"18:47:28",1
"22/10/18","19:00",0.0,15.1,77.5,1011.6,328.0,1.8,3.5,344.1,0.00,11.2,19.9,"18:54:02",1
"22/10/18","19:10",0.0,14.9,78.0,1012.1,318.8,1.7,3.7,314.6,0.00,11.1,20.2,"19:09:04",1
"22/10/18","19:20",0.0,14.7,78.6,1011.9,311.6,1.5,2.6,342.4,0.00,11.1,19.9,"19:15:44",1
"22/10/18","19:30",0.0,14.3,79.4,1012.1,309.9,1.2,2.4,340.1,0.00,10.8,19.8,"19:21:20",1
"22/10/18","19:40",0.0,13.8,80.7,1012.3,331.0,0.8,1.6,337.9,0.00,10.6,20.0,"19:30:16",1
"22/10/18","19:50",0.0,13.4,82.4,1012.1,314.9,1.0,1.9,351.4,0.00,10.5,19.8,"19:45:06",1
"22/10/18","20:00",0.0,13.1,83.7,1012.1,323.2,1.5,1.9,310.8,0.00,10.4,19.7,"19:51:32",1
"22/10/18","20:10",0.0,12.9,85.2,1012.1,329.9,1.6,2.6,337.4,0.00,10.5,19.7,"20:09:20",1
"22/10/18","20:20",0.0,12.8,86.1,1012.3,322.4,1.3,1.7,324.3,0.00,10.6,19.6,"20:14:00",1
"22/10/18","20:30",0.0,12.7,86.8,1012.6,315.3,1.7,2.7,307.5,0.00,10.6,19.6,"20:28:08",1
"22/10/18","20:40",0.0,12.9,86.9,1012.1,304.5,1.3,1.9,334.6,0.00,10.8,19.5,"20:30:16",1
"22/10/18","20:50",0.0,12.6,87.2,1012.6,306.8,1.2,1.9,347.8,0.00,10.6,19.6,"20:44:00",1
"22/10/18","21:00",0.0,12.2,87.8,1012.6,309.2,1.2,1.6,311.4,0.00,10.3,19.4,"20:52:16",1
"22/10/18","21:10",0.0,12.1,88.4,1012.3,323.8,1.5,1.9,330.3,0.00,10.3,19.4,"21:03:36",1
"22/10/18","21:20",0.0,11.9,89.0,1012.8,317.9,1.5,2.1,342.1,0.00,10.2,19.2,"21:19:26",1
"22/10/18","21:30",0.0,11.8,89.6,1012.8,322.0,1.7,2.8,338.2,0.00,10.2,19.2,"21:29:04",1
"22/10/18","21:40",0.0,11.9,90.1,1012.8,323.0,2.0,3.1,338.4,0.00,10.4,19.3,"21:39:44",1
"22/10/18","21:50",0.0,11.9,90.6,1012.6,327.0,1.8,2.8,335.4,0.00,10.5,19.2,"21:43:06",1
"22/10/18","22:00",0.0,11.9,90.8,1012.6,321.4,1.8,3.3,343.1,0.00,10.5,19.1,"21:50:24",1
"22/10/18","22:10",0.0,11.9,91.1,1012.8,327.5,1.8,2.6,332.1,0.00,10.5,19.2,"22:04:12",1
"22/10/18","22:20",0.0,11.8,91.3,1013.0,317.1,1.6,2.1,330.0,0.00,10.5,19.1,"22:13:32",1
"22/10/18","22:30",0.0,11.6,91.6,1013.3,329.2,1.5,2.4,336.2,0.00,10.3,19.1,"22:28:58",1
"22/10/18","22:40",0.0,11.4,92.0,1013.0,306.4,1.3,2.5,333.9,0.00,10.2,19.1,"22:37:30",1
"22/10/18","22:50",0.0,11.4,92.2,1013.3,324.4,1.8,2.5,341.1,0.00,10.2,19.0,"22:43:20",1
"22/10/18","23:00",0.0,11.6,92.4,1013.3,316.7,1.8,3.3,324.9,0.00,10.5,18.8,"22:53:48",1
"22/10/18","23:10",0.0,11.6,92.4,1013.3,313.5,1.6,2.6,303.8,0.00,10.5,18.8,"23:09:50",1
"22/10/18","23:20",0.0,11.6,92.5,1013.5,326.4,1.8,2.7,328.8,0.00,10.5,18.7,"23:10:40",1
"22/10/18","23:30",0.0,11.6,92.5,1013.0,320.9,1.5,2.2,323.3,0.00,10.5,18.8,"23:27:38",1
"22/10/18","23:40",0.0,11.4,92.6,1013.3,309.5,1.2,2.0,301.4,0.00,10.3,18.9,"23:33:54",1
"22/10/18","23:50",0.0,11.1,92.6,1013.5,325.7,0.7,1.2,270.6,0.00,10.0,18.6,"23:47:22",1
"22/10/18","24:00",0.0,10.7,92.8,1013.5,305.9,1.3,2.2,309.2,0.00,9.6,18.7,"23:56:56",1
